Other Public Products
Issued by NWS Grand Forks, ND

Home | Current Version | Previous Version | Text Only | Print | Product List | Glossary Off
Versions: 1 2 3 4 5 6 7 8 9 10 11 12 13 14 15 16 17 18 19 20 21 22 23 24 25 26 27 28 29 30 31 32 33 34 35 36 37 38 39 40 41 42 43 44 45 46 47 48 49 50

000
FPUS83 KFGF 041410
OPUFGF
PRAIRIE TO PINES WEATHER ROUNDUP
NATIONAL WEATHER SERVICE EASTERN NORTH DAKOTA/GRAND FORKS ND
900 AM CDT TUE AUG 04 2015

 **SATELLITE DATA USED TO AUGMENT SKY COVER AT AUTOMATED STATIONS**
 *****  WEATHER ACROSS EASTERN NORTH DAKOTA  *****

CITY           SKY/WX    TMP DP  RH WIND       PRES   REMARKS
GRAND FORKS    MOSUNNY   61  53  75 N3        30.03R
GRAND FORKS AF SUNNY     61  54  77 N7        30.03R
GRAND CITY NWS   N/A     59 N/A N/A N1          N/A
BUXTON         NOT AVBL
DEVILS LAKE    SUNNY     63  48  59 E7        30.03S
FARGO          SUNNY     61  52  72 SW5       30.03R
WAHPETON ARPT  SUNNY     64  48  55 N6        30.02F
$$

 *****  WEATHER ACROSS CENTRAL AND WESTERN NORTH DAKOTA  *****

CITY           SKY/WX    TMP DP  RH WIND       PRES   REMARKS
JAMESTOWN      SUNNY     66  56  70 CALM      30.02S
BISMARCK       SUNNY     64  53  67 E7        30.00F
MINOT          SUNNY     63  52  67 CALM      30.01S
MINOT AFB      SUNNY     65  55  69 SE5       30.00F
GARRISON         N/A     66  56  70 E3        30.00S
WILLISTON      MOSUNNY   70  51  51 E3        29.97S
DICKINSON      SUNNY     63  52  67 E9        29.98R
HETTINGER      SUNNY     64  54  69 E7        29.99S
$$

 *****  OTHER OBSERVATIONS NORTHEAST NORTH DAKOTA  *****

CITY           SKY/WX    TMP DP  RH WIND       PRES   REMARKS
WALHALLA       FAIR      59  59 100 MISG      30.05S
LANGDON        FAIR      61  52  72 NE9       30.05S
CAVALIER       FAIR      59  54  82 N6        30.04S
GRAFTON        FAIR      61  55  82 N7        30.04S
CANDO          NOT AVBL
FORT TOTTEN      N/A     67  56  67 E3        29.95
ROLLA          FAIR      59  54  82 E3        30.06S
RUGBY          NOT AVBL
 ***** THE ABOVE OBSERVATIONS ARE NON NWS ARE NOT QUALITY
        CONTROLLED AND MAY MIS-REPORT RAIN FOR SNOW...
$$

 *****  OTHER OBSERVATIONS SOUTHEAST NORTH DAKOTA *****

CITY           SKY/WX    TMP DP  RH WIND       PRES   REMARKS
COOPERSTOWN    NOT AVBL
VALLEY CITY    FAIR      63  55  77 NE5       30.04S
OAKES            N/A     66  57  72 S3        30.03S
GWINNER        FAIR      66  55  68 SW7       30.03S
BUFFALO        NOT AVBL
WYNDMERE         N/A     64  54  68 N5          N/A
 ***** THE ABOVE OBSERVATIONS ARE NON NWS ARE NOT QUALITY
       CONTROLLED AND MAY MIS-REPORT RAIN FOR SNOW...
$$

  *****  WEATHER ACROSS NORTHERN MINNESOTA  *****

CITY           SKY/WX    TMP DP  RH WIND       PRES   REMARKS
FLAG ISLAND    MOSUNNY   57  48  72 N12       29.99S
WARROAD        SUNNY     59  54  82 N7        30.01S
ROSEAU         SUNNY     59  54  82 N5        30.02R
HALLOCK        SUNNY     61  54  77 N3        30.02F
THF RVR FALLS  SUNNY     63  54  72 N6        30.02S
HALSTAD        NOT AVBL
FOSSTON        SUNNY     61  57  88 CALM      30.03R
BAUDETTE       MOSUNNY   61  51  70 N12       29.98R
WASKISH        MOSUNNY   63  55  77 W3        30.00R
CROOKSTON      SUNNY     63  54  72 N5        30.03R
$$
  *****  WEATHER ACROSS CENTRAL AND WEST MINNESOTA  *****

CITY           SKY/WX    TMP DP  RH WIND       PRES   REMARKS
BEMIDJI        SUNNY     62  54  75 N6        30.01S
PARK RAPIDS    SUNNY     65  51  60 NW7       30.01R
WADENA         SUNNY     63  55  77 SW6       30.02R
DETROIT LAKES  SUNNY     64  50  59 NW5       30.04R
MOORHEAD       SUNNY     61  54  77 SW3       30.04R
FERGUS FALLS   SUNNY     63  54  72 NW5       30.03S
ELBOW LAKE     FAIR      65  54  67 NW3       30.03S
MORRIS MN      MOSUNNY   66  57  72 CALM      30.02S
STAPLES        SUNNY     64  55  72 SW8       30.02R
WHEATON        MOSUNNY   63  55  77 CALM      30.04S
$$
  *****  WEATHER ELSEWHERE ACROSS MINNESOTA  *****

CITY           SKY/WX    TMP DP  RH WIND       PRES   REMARKS
DULUTH         SUNNY     63  52  67 NW6       29.97R
INTRNTL FALLS  MOSUNNY   59  51  75 N12       29.97R
ELY            CLOUDY    57  54  88 NW3       29.95R
CLOQUET        SUNNY     63  52  67 W3        29.98R
BRAINERD       SUNNY     66  50  56 W7        30.02R
HIBBING        MOSUNNY   63  53  70 NW8       29.98R
ALEXANDRIA     SUNNY     68  53  58 W8        30.05S
SAINT CLOUD    SUNNY     67  53  61 W5        30.02S
MINNEAPOLIS    MOSUNNY   70  55  59 W7        30.02R
$$

  *****  WEATHER ACROSS SOUTH DAKOTA  *****

CITY           SKY/WX    TMP DP  RH WIND       PRES   REMARKS
SIOUX FALLS    CLOUDY    66  59  78 E3        30.05R
BROOKINGS      CLOUDY    63  54  72 SE5       30.06S
WATERTOWN      PTSUNNY   66  53  63 SE6       30.04S
HURON          CLOUDY    63  57  81 SE10      29.99F
SISSETON         N/A     70  53  54 SW9       30.01S
ABERDEEN       PTSUNNY   65  55  70 E7        30.01F
MITCHELL       CLOUDY    66  62  87 E6        30.01S
PIERRE         CLOUDY    68  62  81 S10       29.95R
MOBRIDGE       MOSUNNY   68  59  73 E9        29.95S
RAPID CITY     PTSUNNY   67  60  78 S5        29.98R
$$

  *****  SOME WEATHER IN NEARBY STATES *****

CITY           SKY/WX    TMP DP  RH WIND       PRES   REMARKS
GLASGOW MT     MOSUNNY   68  49  50 E20       29.88S
GREAT FALLS MT CLOUDY    70  50  49 CALM      29.92R
CHEYENNE WY    CLOUDY    63  48  58 VRB3      30.12R
SCOTTSBLUFF NE PTSUNNY   64  55  72 CALM      30.01R
OMAHA NE       LGT RAIN  67  65  93 NE8       30.03R
DES MOINES IA  CLOUDY    72  61  68 N5        30.03R
DAVENPORT IA   PTSUNNY   69  62  78 W3        30.01R
CHICAGO IL     PTSUNNY   73  56  54 SW3       29.97R
EAU CLAIRE WI  SUNNY     65  55  70 VRB5      30.00R
LA CROSSE WI   SUNNY     67  57  70 S5        30.01R
$$

  *****  SOME NATIONAL WEATHER *****

CITY           SKY/WX    TMP DP  RH WIND       PRES   REMARKS
LA GUARDIA NY  MOSUNNY   84  65  52 SW8       29.84S
RALEIGH NC     MOSUNNY   83  73  72 SW7       30.02S
ATLANTA GA     MOSUNNY   86  66  51 NW3       30.03R
NEW ORLEANS LA MOSUNNY   83  75  77 S9        29.99R HX  90
OKLAHOMA CITY  LGT RAIN  71  70  96 S10       30.01R FOG
ALBUQUERQUE NM MOSUNNY   69  46  43 CALM      30.22R
SALT LAKE CITY MOSUNNY   64  55  72 SE5       30.12R
LOS ANGELES CA PTCLDY    68  65  90 S3        29.90R
BOISE ID       MOSUNNY   68  54  60 W3        30.00R
SEATTLE WA     PTSUNNY   59  55  87 SW6       30.02R
$$

*** WEATHER ACROSS MANITOBA...SASKATCHEWAN AND ONTARIO ***
                ***ONTARIO***

CITY           SKY/WX    TMP DP  RH WIND       PRES   REMARKS
GERALDTON      DRIZZLE   54  50  87 NW8       29.87R
THUNDER BAY    DRIZZLE   54  52  94 N12       29.93R
SIOUX LOOKOUT  PTSUNNY   54  50  87 N7        29.99R
TORONTO        MOSUNNY   72  55  56 SW3       29.88R
BIG TROUT LK   CLOUDY    52  50  93 NW8       29.96S
PICKLE LAKE    PTSUNNY   54  48  82 N6        29.95S
DRYDEN         CLOUDY    52  46  82 N7        30.00R
KENORA         PTSUNNY   54  48  82 N8        30.01S
$$
                *** MANITOBA***

CITY           SKY/WX    TMP DP  RH WIND       PRES   REMARKS
BRANDON        MOSUNNY   61  54  77 E8        30.05S
DAUPHIN        SUNNY     57  54  88 CALM      30.05S
ISLAND LAKE    LGT RAIN  54  52  94 W6        30.03R
PILOT MOUND      N/A     59  54  82 E5          N/A
THE PAS        MOSUNNY   63  55  77 N3        30.04S
THOMPSON       CLOUDY    54  52  94 N3        30.04S
WINNIPEG       MOSUNNY   61  52  72 NE5       30.04S
LYNN LAKE      CLOUDY    57  54  88 VRB3      30.06S
CHURCHILL      PTSUNNY   50  46  87 N10       30.04S
GILLAM         CLOUDY    52  48  87 N7        30.00S
$$
                ***SASKATCHEWAN***

CITY           SKY/WX    TMP DP  RH WIND       PRES   REMARKS
ESTEVAN        MOSUNNY   64  52  63 E9        30.01R
KINDERSLEY     CLOUDY    63  52  67 SE15      29.82S
LLOYDMINSTER   LGT RAIN  59  55  88 E14       29.87F
PRINCE ALBERT  PTSUNNY   59  55  88 E6        30.00R
REGINA         PTSUNNY   64  50  59 SE13      29.98S
YORKTON        SUNNY     57  54  88 SE5       30.03R



USA.gov is the U.S. government's official web portal to all federal, state and local government web resources and services.